[[{"header":{"parameterUnit":"m.s-1","parameterCategory":1,"la1":30.2991,"la2":30.254,"lo1":-89.0895,"lo2":-89.0444,"dy":0.0017,"dx":0.0017,"nx":28,"ny":28,"refTime":"2025-05-26T03:00:00:Z","depth":0,"parameterNumber":2,"parameterNumberName":"U-component_of_WINDS"},"data":[0,0,0,0,0,0,0,0,0,0,0,0,0,0,0,0,0,0,0,0,0,0,0,0,0,0,0,0,0,0,0,0,0,0,0,0,0,0,0,0,0,0,0,0,0,0,0,0,0,0,0,0,0,0,0,0,0,0,2.3167,2.3168,0,2.3276,2.3277,2.3278,2.3284,2.3283,2.3282,2.3281,2.339,2.3394,2.3398,0,0,0,0,0,0,0,0,0,0,0,0,0,2.2961,2.2965,2.3167,2.3168,2.3169,2.3275,2.3277,2.3278,2.3284,2.3283,2.3281,2.328,2.3389,2.3394,2.3398,0,0,0,0,0,0,0,0,0,0,0,0,0,2.3058,2.2966,2.3166,2.3185,2.3188,2.3275,2.3277,2.3279,2.3285,2.3283,2.3281,2.3279,2.3387,2.3393,2.3399,2.3474,0,0,2.3418,2.342,0,0,0,0,0,0,0,0,2.3053,2.3066,2.3181,2.3184,2.3187,2.3264,2.3244,2.3344,2.3285,2.3248,2.3281,2.3278,2.335,2.3359,2.3383,2.3479,2.3484,2.3418,2.3422,2.3425,2.3426,0,0,0,0,0,0,0,2.3046,2.3061,2.321,2.3183,2.3187,2.3187,2.3199,2.3263,2.3308,2.3251,2.3252,2.3265,2.3351,2.3377,2.3386,2.3485,2.3418,2.3424,2.3427,2.343,2.3645,2.3647,0,0,0,0,0,0,2.3036,2.3055,2.3206,2.3213,2.3114,2.3192,2.3206,2.3242,2.3307,2.3315,2.3266,2.3265,2.3368,2.3379,2.339,2.3479,2.3425,2.343,2.3434,2.3643,2.3646,2.3648,0,0,0,0,0,0,2.3032,2.3049,2.3202,2.3134,2.3154,2.3198,2.3238,2.3245,2.3271,2.3319,2.3326,2.3285,2.3367,2.3381,2.3452,2.3483,2.3433,2.3439,2.3641,2.3644,2.3647,2.3661,0,0,0,0,0,0,2.3026,2.3048,2.3077,2.3135,2.3158,2.3264,2.324,2.3248,2.3282,2.3281,2.3338,2.3346,2.3366,2.3443,2.3458,2.3491,2.3443,2.3638,2.3642,2.3646,2.3658,2.3664,2.3669,0,0,0,0,0,2.3018,2.3077,2.3079,2.3097,2.3196,2.3266,2.3278,2.3301,2.3284,2.3314,2.3344,2.3344,2.3478,2.3451,2.3468,2.3502,2.3636,2.3641,2.3646,2.3655,2.3663,2.3669,0,0,0,0,0,0,2.3022,2.3085,2.3088,2.3167,2.3211,2.3267,2.3304,2.3309,2.3358,2.3354,2.338,2.3393,2.3463,2.349,2.3459,2.3577,2.3555,2.3563,2.3556,2.3564,2.357,2.3561,2.3448,0,0,0,0,0,2.3032,2.3084,2.3137,2.3202,2.3223,2.326,2.3292,2.3305,2.3351,2.3369,2.3405,2.3449,2.3501,2.3534,2.3585,2.3662,2.3673,2.3694,2.37,2.3705,2.3711,2.3751,2.376,2.3663,2.3663,2.3663,0,0,2.3053,2.3094,2.3126,2.3203,2.3239,2.3291,2.3276,2.3332,2.3371,2.3378,2.3447,2.3475,2.3525,2.3599,2.3634,2.3624,2.374,2.3711,2.3714,2.3718,2.3757,2.3766,2.3774,2.3666,2.3666,2.3665,0,0,2.3118,2.3155,2.3212,2.3248,2.3302,2.3326,2.334,2.3394,2.3413,2.3483,2.3489,2.3535,2.3624,2.3659,2.3688,2.3765,2.3766,2.3781,2.381,2.3849,2.3857,2.3864,2.3889,2.3898,2.3787,2.3787,2.3787,0,2.3137,2.3217,2.3241,2.3297,2.333,2.3339,2.3396,2.343,2.3497,2.3519,2.3507,2.3618,2.3653,2.3734,2.3752,2.3777,2.3792,2.3773,2.3854,2.3861,2.3868,2.3892,2.3902,2.3788,2.3788,2.3788,2.3788,0,2.3237,2.3292,2.3331,2.3396,2.3434,2.349,2.3521,2.3556,2.3566,2.3591,2.366,2.3703,2.3761,2.3781,2.3792,2.3864,2.3856,2.3849,2.3827,2.3878,2.3901,2.3911,2.379,2.379,2.3789,2.3789,0,0,2.3306,2.3383,2.3397,2.3425,2.3485,2.3527,2.3583,2.364,2.3668,2.3715,2.376,2.3835,2.3829,2.3862,2.3877,2.3912,2.3966,2.39,2.3902,2.3909,2.4045,2.4048,2.4058,2.3968,2.397,2.3972,2.404,0,2.3376,2.3476,2.3499,2.3584,2.3634,2.3643,2.3691,2.3732,2.3756,2.3801,2.3828,2.3879,2.3869,2.3888,2.3923,2.3952,2.3993,2.3948,2.4009,2.4011,2.3994,2.4071,2.4075,2.4137,2.4049,2.4051,2.4052,0,2.347,2.3518,2.3608,2.3659,2.3681,2.3724,2.3777,2.3821,2.3867,2.3882,2.3918,2.3929,2.3986,2.3962,2.404,2.4008,2.4035,2.4053,2.4056,2.406,2.4033,2.4075,2.4157,2.4166,2.4067,2.4065,2.4064,0,2.3509,2.3596,2.366,2.3685,2.3747,2.3776,2.3804,2.3848,2.388,2.3926,2.3947,2.3999,2.4027,2.4067,2.409,2.4072,2.4165,2.4144,2.4177,2.4177,2.4195,2.4193,2.428,2.4216,2.4216,2.4216,2.4215,0,2.3583,2.3637,2.3678,2.3718,2.3778,2.3803,2.3862,2.3889,2.3928,2.3972,2.3984,2.4024,2.4054,2.4099,2.4118,2.4177,2.4191,2.4203,2.4207,2.4201,2.4199,2.4217,2.4213,2.4218,2.4217,2.4217,2.4217,0,2.3635,2.3666,2.3736,2.3789,2.3803,2.3845,2.389,2.3928,2.3952,2.4007,2.4021,2.4059,2.4112,2.414,2.4207,2.4219,2.4285,2.4288,2.427,2.4271,2.4302,2.4297,2.4402,2.4415,2.4344,2.4344,2.4345,0,2.3679,2.3721,2.3778,2.3809,2.3836,2.3885,2.3918,2.3944,2.3977,2.4032,2.4063,2.4116,2.416,2.4243,2.4276,2.4326,2.4329,2.4362,2.4337,2.4328,2.4327,2.4323,2.4326,2.4366,2.4366,2.4367,2.4367,0,2.3754,2.3766,2.3813,2.3865,2.3904,2.3946,2.3987,2.4011,2.4044,2.408,2.4134,2.4169,2.4236,2.4288,2.434,2.4367,2.4372,2.4375,2.4385,2.4378,2.4365,2.437,2.4279,2.4373,2.4372,2.4372,2.4371,2.4371,2.3802,2.3839,2.3884,2.3935,2.3969,2.4007,2.4045,2.4074,2.412,2.4176,2.4189,2.4245,2.4288,2.4359,2.4388,2.4431,2.4424,2.4439,2.4443,2.4445,2.4445,2.436,2.4441,2.4441,2.4441,2.4441,2.4441,0,2.3875,2.3904,2.3951,2.4009,2.4048,2.4051,2.4097,2.4129,2.4179,2.4219,2.4262,2.4323,2.4373,2.441,2.4461,2.4488,2.4492,2.4501,2.4498,2.4503,2.445,2.4435,2.4497,2.4497,2.4497,2.4497,2.4497,2.4497,2.3917,2.3978,2.3996,2.4074,2.4103,2.4158,2.4184,2.4218,2.425,2.4318,2.436,2.4384,2.4422,2.4475,2.4521,2.453,2.4547,2.4556,2.4565,2.4514,2.4507,2.4502,2.4488,2.456,2.456,2.4615,2.4615,2.4615]},{"header":{"parameterUnit":"m.s-1","parameterCategory":1,"la1":30.2991,"la2":30.254,"lo1":-89.0895,"lo2":-89.0444,"dy":0.0017,"dx":0.0017,"nx":28,"ny":28,"refTime":"2025-05-26T03:00:00:Z","depth":0,"parameterNumber":3,"parameterNumberName":"V-component_of_WINDS"},"data":[0,0,0,0,0,0,0,0,0,0,0,0,0,0,0,0,0,0,0,0,0,0,0,0,0,0,0,0,0,0,0,0,0,0,0,0,0,0,0,0,0,0,0,0,0,0,0,0,0,0,0,0,0,0,0,0,0,0,4.2937,4.2938,0,4.3013,4.3014,4.3015,4.296,4.2957,4.2955,4.2953,4.3027,4.3031,4.3035,0,0,0,0,0,0,0,0,0,0,0,0,0,4.2739,4.2743,4.2937,4.2938,4.2939,4.3013,4.3014,4.3015,4.296,4.2957,4.2954,4.2952,4.3026,4.3031,4.3036,0,0,0,0,0,0,0,0,0,0,0,0,0,4.2821,4.2744,4.2937,4.2921,4.292,4.3013,4.3014,4.3016,4.2961,4.2957,4.2954,4.295,4.3024,4.303,4.3036,4.3149,0,0,4.3056,4.3059,0,0,0,0,0,0,0,0,4.2816,4.2828,4.2922,4.2922,4.2921,4.2973,4.2972,4.306,4.2962,4.2945,4.2953,4.2948,4.3012,4.3019,4.3041,4.3152,4.3155,4.3056,4.306,4.3063,4.3065,0,0,0,0,0,0,0,4.2811,4.2825,4.2967,4.2923,4.2923,4.2908,4.2915,4.2988,4.2998,4.2946,4.2943,4.2953,4.3011,4.3035,4.3043,4.3156,4.3056,4.3062,4.3066,4.3068,4.3361,4.3365,0,0,0,0,0,0,4.2807,4.282,4.2965,4.2969,4.2859,4.2914,4.2923,4.296,4.2997,4.2999,4.2956,4.295,4.3026,4.3035,4.3045,4.3177,4.3063,4.3069,4.3073,4.3357,4.3362,4.3366,0,0,0,0,0,0,4.2803,4.2821,4.2962,4.2894,4.2911,4.2922,4.2964,4.2964,4.2988,4.3004,4.3005,4.2979,4.3024,4.3036,4.3123,4.3179,4.3072,4.3078,4.3352,4.3358,4.3364,4.3444,0,0,0,0,0,0,4.2798,4.2819,4.2863,4.2895,4.2915,4.304,4.2968,4.2968,4.3,4.2993,4.3026,4.3028,4.3022,4.3114,4.3129,4.3186,4.3083,4.3347,4.3355,4.3362,4.3436,4.3452,4.3465,0,0,0,0,0,4.2791,4.2882,4.2866,4.2884,4.297,4.3044,4.3054,4.3046,4.3004,4.3048,4.3058,4.3027,4.3171,4.3123,4.314,4.32,4.3344,4.3353,4.3361,4.343,4.3449,4.3465,0,0,0,0,0,0,4.2856,4.2886,4.2868,4.2974,4.3007,4.3034,4.3089,4.3067,4.3111,4.3103,4.3089,4.3097,4.3188,4.3203,4.3149,4.3309,4.325,4.3263,4.3296,4.3315,4.3329,4.3323,4.3088,0,0,0,0,0,4.2883,4.2941,4.2964,4.3054,4.3072,4.3078,4.3109,4.31,4.3133,4.3147,4.3163,4.3195,4.3247,4.3282,4.3331,4.3438,4.3443,4.3487,4.3502,4.3513,4.3524,4.358,4.3599,4.3395,4.3395,4.3395,0,0,4.2938,4.2962,4.3,4.3068,4.3093,4.3152,4.309,4.3156,4.3199,4.3156,4.3239,4.3253,4.3287,4.3385,4.3428,4.3399,4.3582,4.3525,4.3534,4.3538,4.3591,4.3611,4.3628,4.3401,4.34,4.3399,0,0,4.3069,4.3094,4.3171,4.3197,4.3235,4.3238,4.3257,4.3288,4.3295,4.3379,4.3348,4.3398,4.3489,4.3514,4.3539,4.3679,4.3652,4.3695,4.377,4.3825,4.3841,4.3855,4.3904,4.3922,4.3706,4.3707,4.3707,0,4.3133,4.3223,4.3214,4.3282,4.3312,4.3277,4.3354,4.3379,4.3431,4.3452,4.3419,4.3531,4.3552,4.3654,4.3688,4.371,4.3729,4.3691,4.384,4.3854,4.3867,4.3913,4.3932,4.3711,4.3711,4.371,4.371,0,4.3298,4.3361,4.3418,4.347,4.3507,4.3579,4.3579,4.3617,4.3605,4.3611,4.3695,4.3719,4.3771,4.3795,4.3783,4.3895,4.3876,4.3842,4.3782,4.3892,4.3935,4.3952,4.3719,4.3717,4.3715,4.3714,0,0,4.3472,4.3518,4.3539,4.3562,4.3601,4.3648,4.3718,4.377,4.3802,4.3839,4.3896,4.3973,4.3941,4.397,4.396,4.4009,4.4116,4.3968,4.3969,4.3994,4.4239,4.4263,4.4284,4.4098,4.4102,4.4105,4.4235,0,4.3604,4.3728,4.3721,4.3836,4.3892,4.386,4.392,4.3949,4.3957,4.4004,4.4011,4.4066,4.4021,4.4038,4.4084,4.4093,4.4165,4.4084,4.4149,4.4152,4.4141,4.4307,4.4333,4.4455,4.4252,4.4255,4.4257,0,4.3775,4.3818,4.3939,4.3969,4.3992,4.4047,4.4094,4.414,4.4172,4.4174,4.4206,4.4188,4.4256,4.4196,4.4289,4.4234,4.426,4.4269,4.4273,4.4278,4.421,4.4315,4.4494,4.4512,4.4284,4.4281,4.428,0,4.3888,4.3977,4.406,4.408,4.4117,4.4156,4.4173,4.4202,4.4233,4.4274,4.4294,4.4341,4.4367,4.4403,4.4398,4.4355,4.4492,4.4432,4.4494,4.4494,4.4524,4.4522,4.4709,4.4543,4.4543,4.4542,4.4542,0,4.4036,4.411,4.4111,4.4162,4.4244,4.4235,4.4316,4.4328,4.4354,4.4406,4.438,4.4429,4.442,4.4468,4.4464,4.4541,4.4553,4.4554,4.4552,4.4556,4.4556,4.4573,4.4563,4.4547,4.4546,4.4545,4.4544,0,4.4176,4.4179,4.4268,4.4296,4.4304,4.4363,4.4386,4.4434,4.4439,4.4504,4.4519,4.4526,4.4581,4.458,4.4642,4.464,4.4734,4.4722,4.4723,4.472,4.4782,4.4776,4.4985,4.5012,4.483,4.4832,4.4833,0,4.4269,4.4326,4.436,4.4393,4.4413,4.4467,4.4499,4.4492,4.4526,4.4566,4.4608,4.4661,4.4703,4.4792,4.4802,4.4849,4.4838,4.4908,4.4845,4.4847,4.4837,4.4834,4.4838,4.492,4.4922,4.4924,4.4925,0,4.4434,4.4433,4.4481,4.453,4.4569,4.4607,4.4641,4.4669,4.4666,4.4705,4.4762,4.4794,4.4858,4.491,4.4956,4.4971,4.4947,4.4946,4.4962,4.4966,4.4964,4.4964,4.4756,4.494,4.4939,4.4938,4.4937,4.4936,4.4552,4.4601,4.4632,4.4686,4.4712,4.4744,4.479,4.4801,4.4848,4.49,4.4893,4.4956,4.4985,4.5043,4.5063,4.511,4.5085,4.511,4.5116,4.5122,4.5128,4.4957,4.5119,4.5118,4.5118,4.5117,4.5117,0,4.4714,4.4733,4.4783,4.4832,4.4874,4.485,4.4887,4.4923,4.4979,4.5009,4.5051,4.5115,4.5165,4.5179,4.5227,4.5262,4.5253,4.5275,4.5272,4.5275,4.5148,4.5128,4.5282,4.5282,4.5282,4.5282,4.5282,4.5282,4.4803,4.4884,4.4886,4.4978,4.4996,4.5058,4.5081,4.511,4.5134,4.5207,4.5249,4.5258,4.5281,4.533,4.5375,4.5377,4.5395,4.5422,4.542,4.5301,4.5284,4.5269,4.525,4.5426,4.5427,4.5543,4.5544,4.5545]}]]